Location: Rowland
(34.5359°N, 79.2929°W)
Time: 20:12:25
(UTC+00:00)

Transit 2A - Pass Details

Date: 11 October 2022
Orbit: 598 x 959 km, 66.7° (Epoch: 03 December)

Event Time Altitude Azimuth Distance (km) Brightness Sun altitude
Rises 02:41:14 0° 233° (SW) 2,920 - -47.1°
Reaches altitude 10° 02:43:52 10° 247° (WSW) 1,979 - -47.6°
Maximum altitude 02:47:32 25° 303° (WNW) 1,220 - -48.2°
Drops below altitude 10° 02:51:08 10° 0° (N) 1,939 - -48.8°
Sets 02:53:42 0° 14° (NNE) 2,849 - -49.3°
